Home > Weather > Germany > Frechen > Past weeks

Flag for Germany Weather past 2 weeks in Frechen, North Rhine-Westphalia, Germany

52 °F

Passing clouds.

Feels Like: 49 °F
Forecast: 45 / 52 °F
Wind: 9 mph from Southwest

Location: Noervenich

Current Time: Dec 1, 2015 at 11:34:31 PM

Latest Report: Dec 1, 2015 at 10:20 PM

Visibility: N/A

Pressure: 30.33 "Hg

Humidity: 88%

Dew point: 48 °F

Location of FrechenLocation

Historic Weather in Frechen — Graph


Frechen temperature yesterday

Maximum temperature yesterday: 52 °F (at 12:20 AM)
Minimum temperature yesterday: 46 °F (at 1:20 AM)
Average temperature yesterday: 50 °F

Past Weeks' High & Low Weather Summary

High63 °F (Nov 17, 9:20 PM)100% (Nov 19, 5:20 PM)30.33 "Hg (Nov 19, 5:20 PM)
Low30 °F (Nov 27, 5:20 AM)57% (Nov 27, 2:20 PM)29.39 "Hg (Nov 21, 12:20 PM)
Average45 °F83%29.89 "Hg
* Reported Nov 16 10:20 PM — Dec 1 10:20 PM, Frechen, Weather by CustomWeather, © 2015

Note: Actual official high and low records may vary slightly from our data, if they occured in-between our weather recording intervals... More about our weather records


Frechen weather history for previous 24 hours

Time TempWeatherWind HumidityBarometerVisibility
10:20 PM
Tue, Dec 1
52 °FPassing clouds.9 mph88%30.33 "HgN/A
9:20 PM54 °FPartly cloudy.13 mph82%30.33 "HgN/A
8:20 PM54 °FPassing clouds.14 mph82%30.30 "HgN/A
7:20 PM54 °FPassing clouds.12 mph94%30.30 "HgN/A
6:20 PM54 °FMostly cloudy.9 mph94%30.27 "Hg5 mi
5:20 PM54 °FMostly cloudy.13 mph94%30.27 "Hg5 mi
4:20 PM54 °FCloudy.14 mph94%30.24 "Hg5 mi
3:46 PM54 °FMore clouds than sun.13 mph94%30.24 "Hg4 mi
3:20 PM54 °FDrizzle. Fog.10 mph94%30.24 "Hg1 mi
2:20 PM50 °FDrizzle. Fog.1 mph94%30.24 "Hg2 mi
1:20 PM48 °FDrizzle. Fog.2 mph94%30.24 "Hg1 mi
12:20 PM46 °FDrizzle. Fog.1 mph100%30.24 "Hg2 mi
11:20 AM46 °FDrizzle. Fog.1 mph93%30.24 "Hg2 mi
10:20 AM45 °FDrizzle. Fog.1 mph100%30.21 "Hg2 mi
9:20 AM45 °FDrizzle. Fog.No wind100%30.21 "Hg2 mi
8:45 AM45 °FDrizzle. Fog.No wind100%30.21 "Hg2 mi
8:20 AM45 °FDrizzle. Fog.2 mph100%30.18 "Hg3 mi
7:20 AM46 °FDrizzle. Fog.3 mph100%30.18 "Hg2 mi
6:20 AM48 °FDrizzle. Fog.6 mph100%30.15 "Hg2 mi
5:47 AM48 °FDrizzle. Fog.6 mph100%30.12 "Hg2 mi
4:20 AM50 °FDrizzle. Fog.10 mph100%30.09 "Hg2 mi
3:20 AM54 °FLight rain. Passing clouds.17 mph88%30.07 "HgN/A
2:20 AM54 °FPassing clouds.18 mph88%30.01 "HgN/A
1:20 AM52 °FLight rain. Passing clouds.22 mph88%30.01 "HgN/A
12:20 AM52 °FLight rain. Passing clouds.23 mph88%29.95 "HgN/A
11:20 PM
Mon, Nov 30
52 °FLight rain. Mostly cloudy.25 mph88%29.95 "HgN/A
Weather by CustomWeather, © 2015

See weather overviewHow to use our weather pages